Time,TemperatureF,DewpointF,PressureIn,WindDirection,WindDirectionDegrees,WindSpeedMPH,WindSpeedGustMPH,Humidity,HourlyPrecipIn,Conditions,Clouds,dailyrainin,SoftwareType,DateUTC
2013-02-28 00:09:00,42.5,34.0,29.59,NW,306,1.0,5.0,73,0.00,,,0.00,weatherlink.com 1.10,2013-02-28 05:09:00,
2013-02-28 00:24:00,42.3,34.0,29.59,WNW,284,1.0,3.0,73,0.00,,,0.00,weatherlink.com 1.10,2013-02-28 05:24:00,
2013-02-28 00:39:00,42.2,34.0,29.59,WNW,300,1.0,3.0,73,0.00,,,0.00,weatherlink.com 1.10,2013-02-28 05:39:00,
2013-02-28 00:54:00,42.1,34.0,29.58,WNW,301,2.0,3.0,73,0.00,,,0.00,weatherlink.com 1.10,2013-02-28 05:54:00,
2013-02-28 01:09:00,42.0,34.0,29.59,NW,311,1.0,3.0,72,0.00,,,0.00,weatherlink.com 1.10,2013-02-28 06:09:00,
2013-02-28 01:24:00,41.8,33.0,29.59,NW,309,0.0,2.0,72,0.00,,,0.00,weatherlink.com 1.10,2013-02-28 06:24:00,
2013-02-28 01:39:00,41.6,34.0,29.59,West,277,2.0,2.0,73,0.00,,,0.00,weatherlink.com 1.10,2013-02-28 06:39:00,
2013-02-28 01:54:00,42.0,33.0,29.59,WNW,285,3.0,9.0,70,0.00,,,0.00,weatherlink.com 1.10,2013-02-28 06:54:00,
2013-02-28 02:09:00,42.2,32.0,29.59,NW,306,5.0,9.0,67,0.00,,,0.00,weatherlink.com 1.10,2013-02-28 07:09:00,
2013-02-28 02:24:00,42.0,31.0,29.59,West,279,4.0,11.0,66,0.00,,,0.00,weatherlink.com 1.10,2013-02-28 07:24:00,
2013-02-28 02:39:00,41.4,31.0,29.59,WNW,292,2.0,7.0,67,0.00,,,0.00,weatherlink.com 1.10,2013-02-28 07:39:00,
2013-02-28 02:54:00,40.6,30.0,29.59,WNW,302,5.0,10.0,65,0.00,,,0.00,weatherlink.com 1.10,2013-02-28 07:54:00,
2013-02-28 03:09:00,40.0,29.0,29.59,WNW,297,3.0,8.0,65,0.00,,,0.00,weatherlink.com 1.10,2013-02-28 08:09:00,
2013-02-28 03:24:00,39.5,29.0,29.59,WNW,302,3.0,8.0,66,0.00,,,0.00,weatherlink.com 1.10,2013-02-28 08:24:00,
2013-02-28 03:39:00,39.2,29.0,29.59,WNW,297,3.0,7.0,66,0.00,,,0.00,weatherlink.com 1.10,2013-02-28 08:39:00,
2013-02-28 03:54:00,39.1,29.0,29.59,NW,310,2.0,10.0,66,0.00,,,0.00,weatherlink.com 1.10,2013-02-28 08:54:00,
2013-02-28 04:09:00,38.7,28.0,29.59,WNW,298,5.0,10.0,65,0.00,,,0.00,weatherlink.com 1.10,2013-02-28 09:09:00,
2013-02-28 04:24:00,38.4,27.0,29.59,WNW,296,6.0,7.0,64,0.00,,,0.00,weatherlink.com 1.10,2013-02-28 09:24:00,
2013-02-28 04:39:00,37.8,27.0,29.60,NW,308,3.0,5.0,65,0.00,,,0.00,weatherlink.com 1.10,2013-02-28 09:39:00,
2013-02-28 04:54:00,37.2,27.0,29.60,WNW,297,2.0,5.0,66,0.00,,,0.00,weatherlink.com 1.10,2013-02-28 09:54:00,
2013-02-28 05:09:00,36.6,27.0,29.60,NW,315,2.0,4.0,67,0.00,,,0.00,weatherlink.com 1.10,2013-02-28 10:09:00,
2013-02-28 05:24:00,36.0,26.0,29.61,NW,309,1.0,3.0,68,0.00,,,0.00,weatherlink.com 1.10,2013-02-28 10:24:00,
2013-02-28 05:39:00,35.5,26.0,29.60,WNW,302,1.0,3.0,69,0.00,,,0.00,weatherlink.com 1.10,2013-02-28 10:39:00,
2013-02-28 05:54:00,35.0,26.0,29.60,WNW,294,4.0,5.0,71,0.00,,,0.00,weatherlink.com 1.10,2013-02-28 10:54:00,
2013-02-28 06:09:00,34.9,26.0,29.60,NW,307,1.0,2.0,70,0.00,,,0.00,weatherlink.com 1.10,2013-02-28 11:09:00,
2013-02-28 06:24:00,34.7,26.0,29.60,WNW,296,0.0,4.0,71,0.00,,,0.00,weatherlink.com 1.10,2013-02-28 11:24:00,
2013-02-28 06:39:00,34.5,26.0,29.61,NW,306,0.0,2.0,71,0.00,,,0.00,weatherlink.com 1.10,2013-02-28 11:39:00,
2013-02-28 06:54:00,35.0,26.0,29.61,NW,306,0.0,3.0,70,0.00,,,0.00,weatherlink.com 1.10,2013-02-28 11:54:00,
2013-02-28 07:09:00,35.7,27.0,29.61,West,260,0.0,1.0,70,0.00,,,0.00,weatherlink.com 1.10,2013-02-28 12:09:00,
2013-02-28 07:24:00,36.5,26.0,29.61,NW,311,1.0,3.0,67,0.00,,,0.00,weatherlink.com 1.10,2013-02-28 12:24:00,
2013-02-28 07:39:00,37.8,27.0,29.61,NW,304,0.0,2.0,66,0.00,,,0.00,weatherlink.com 1.10,2013-02-28 12:39:00,
2013-02-28 07:54:00,40.8,28.0,29.61,NW,309,0.0,3.0,61,0.00,,,0.00,weatherlink.com 1.10,2013-02-28 12:54:00,
2013-02-28 08:09:00,41.5,28.0,29.61,NW,309,4.0,7.0,59,0.00,,,0.00,weatherlink.com 1.10,2013-02-28 13:09:00,
2013-02-28 08:25:00,41.0,27.0,29.62,WNW,297,3.0,7.0,59,0.00,,,0.00,weatherlink.com 1.10,2013-02-28 13:25:00,
2013-02-28 08:40:00,40.2,28.0,29.62,NW,316,3.0,10.0,61,0.00,,,0.00,weatherlink.com 1.10,2013-02-28 13:40:00,
2013-02-28 08:55:00,40.5,28.0,29.61,WNW,301,3.0,7.0,61,0.00,,,0.00,weatherlink.com 1.10,2013-02-28 13:55:00,
2013-02-28 09:10:00,40.8,28.0,29.61,WNW,299,7.0,10.0,61,0.00,,,0.00,weatherlink.com 1.10,2013-02-28 14:10:00,
2013-02-28 09:25:00,41.5,28.0,29.61,NW,304,3.0,11.0,59,0.00,,,0.00,weatherlink.com 1.10,2013-02-28 14:25:00,
2013-02-28 09:39:00,43.3,28.0,29.61,NW,311,2.0,8.0,56,0.00,,,0.00,weatherlink.com 1.10,2013-02-28 14:39:00,
2013-02-28 09:55:00,42.4,28.0,29.60,WNW,298,4.0,7.0,57,0.00,,,0.00,weatherlink.com 1.10,2013-02-28 14:55:00,
2013-02-28 10:09:00,42.5,28.0,29.60,WNW,297,5.0,10.0,58,0.00,,,0.00,weatherlink.com 1.10,2013-02-28 15:09:00,
2013-02-28 10:24:00,42.4,28.0,29.60,NW,313,1.0,12.0,58,0.00,,,0.00,weatherlink.com 1.10,2013-02-28 15:24:00,
2013-02-28 10:39:00,42.8,28.0,29.60,WNW,295,10.0,13.0,56,0.00,,,0.00,weatherlink.com 1.10,2013-02-28 15:39:00,
2013-02-28 10:54:00,42.5,28.0,29.60,West,275,5.0,11.0,57,0.00,,,0.00,weatherlink.com 1.10,2013-02-28 15:54:00,
2013-02-28 11:09:00,42.7,28.0,29.61,WNW,298,3.0,15.0,57,0.00,,,0.00,weatherlink.com 1.10,2013-02-28 16:09:00,
2013-02-28 11:24:00,42.7,28.0,29.61,NW,305,8.0,15.0,57,0.00,,,0.00,weatherlink.com 1.10,2013-02-28 16:24:00,
2013-02-28 11:39:00,42.8,28.0,29.61,WNW,287,8.0,12.0,57,0.00,,,0.00,weatherlink.com 1.10,2013-02-28 16:39:00,
2013-02-28 11:54:00,42.9,29.0,29.60,WNW,288,4.0,12.0,58,0.00,,,0.00,weatherlink.com 1.10,2013-02-28 16:54:00,
2013-02-28 12:09:00,42.0,28.0,29.60,NW,313,7.0,13.0,59,0.00,,,0.00,weatherlink.com 1.10,2013-02-28 17:09:00,
2013-02-28 12:24:00,41.3,28.0,29.60,WNW,285,7.0,13.0,60,0.00,,,0.00,weatherlink.com 1.10,2013-02-28 17:24:00,
2013-02-28 12:39:00,41.4,28.0,29.60,NW,309,4.0,17.0,60,0.00,,,0.00,weatherlink.com 1.10,2013-02-28 17:39:00,
2013-02-28 12:54:00,41.4,28.0,29.60,WNW,292,6.0,18.0,59,0.00,,,0.00,weatherlink.com 1.10,2013-02-28 17:54:00,
2013-02-28 13:09:00,42.2,28.0,29.60,NW,315,10.0,13.0,58,0.00,,,0.00,weatherlink.com 1.10,2013-02-28 18:09:00,
2013-02-28 13:24:00,41.6,28.0,29.60,NW,325,1.0,15.0,60,0.00,,,0.00,weatherlink.com 1.10,2013-02-28 18:24:00,
2013-02-28 13:39:00,42.3,28.0,29.59,WNW,284,6.0,15.0,58,0.00,,,0.00,weatherlink.com 1.10,2013-02-28 18:39:00,
2013-02-28 13:54:00,43.8,29.0,29.59,NW,313,6.0,12.0,56,0.00,,,0.00,weatherlink.com 1.10,2013-02-28 18:54:00,
2013-02-28 14:09:00,43.5,28.0,29.59,NW,311,5.0,11.0,55,0.00,,,0.00,weatherlink.com 1.10,2013-02-28 19:09:00,
2013-02-28 14:24:00,42.8,27.0,29.59,NW,309,6.0,12.0,54,0.00,,,0.00,weatherlink.com 1.10,2013-02-28 19:24:00,
2013-02-28 14:40:00,42.3,27.0,29.59,NW,313,5.0,11.0,55,0.00,,,0.00,weatherlink.com 1.10,2013-02-28 19:40:00,
2013-02-28 14:54:00,42.1,27.0,29.59,NW,313,2.0,14.0,55,0.00,,,0.00,weatherlink.com 1.10,2013-02-28 19:54:00,
2013-02-28 15:09:00,42.9,27.0,29.59,WNW,282,13.0,19.0,54,0.00,,,0.00,weatherlink.com 1.10,2013-02-28 20:09:00,
2013-02-28 15:24:00,42.5,27.0,29.59,WNW,296,13.0,16.0,55,0.00,,,0.00,weatherlink.com 1.10,2013-02-28 20:24:00,
2013-02-28 15:39:00,42.4,28.0,29.59,NW,326,7.0,13.0,56,0.00,,,0.00,weatherlink.com 1.10,2013-02-28 20:39:00,
2013-02-28 15:54:00,42.2,28.0,29.59,WNW,291,8.0,11.0,58,0.00,,,0.00,weatherlink.com 1.10,2013-02-28 20:54:00,
2013-02-28 16:09:00,41.5,28.0,29.59,West,271,11.0,18.0,59,0.00,,,0.00,weatherlink.com 1.10,2013-02-28 21:09:00,
2013-02-28 16:24:00,41.2,29.0,29.59,NW,309,5.0,14.0,61,0.00,,,0.00,weatherlink.com 1.10,2013-02-28 21:24:00,
2013-02-28 16:39:00,40.7,28.0,29.60,NW,305,3.0,12.0,62,0.00,,,0.00,weatherlink.com 1.10,2013-02-28 21:39:00,
2013-02-28 16:54:00,40.8,29.0,29.60,WNW,286,7.0,13.0,62,0.00,,,0.00,weatherlink.com 1.10,2013-02-28 21:54:00,
2013-02-28 17:09:00,41.1,29.0,29.60,NW,306,5.0,9.0,62,0.00,,,0.00,weatherlink.com 1.10,2013-02-28 22:09:00,
2013-02-28 17:24:00,40.5,29.0,29.61,WNW,296,8.0,13.0,63,0.00,,,0.00,weatherlink.com 1.10,2013-02-28 22:24:00,
2013-02-28 17:39:00,40.1,28.0,29.62,WNW,298,3.0,9.0,63,0.00,,,0.00,weatherlink.com 1.10,2013-02-28 22:39:00,
2013-02-28 17:54:00,40.0,29.0,29.62,WNW,298,4.0,8.0,64,0.00,,,0.00,weatherlink.com 1.10,2013-02-28 22:54:00,
2013-02-28 18:09:00,39.8,28.0,29.63,WNW,302,2.0,7.0,64,0.00,,,0.00,weatherlink.com 1.10,2013-02-28 23:09:00,
2013-02-28 18:24:00,39.8,28.0,29.63,WNW,288,4.0,6.0,64,0.00,,,0.00,weatherlink.com 1.10,2013-02-28 23:24:00,
2013-02-28 18:39:00,39.8,28.0,29.64,NW,306,4.0,9.0,62,0.00,,,0.00,weatherlink.com 1.10,2013-02-28 23:39:00,
2013-02-28 18:54:00,40.0,28.0,29.64,West,267,4.0,7.0,62,0.00,,,0.00,weatherlink.com 1.10,2013-02-28 23:54:00,
2013-02-28 19:09:00,39.9,28.0,29.64,WNW,293,8.0,12.0,62,0.00,,,0.00,weatherlink.com 1.10,2013-03-01 00:09:00,
2013-02-28 19:24:00,39.9,28.0,29.65,WNW,300,0.0,8.0,62,0.00,,,0.00,weatherlink.com 1.10,2013-03-01 00:24:00,
2013-02-28 19:39:00,39.8,28.0,29.65,NW,319,3.0,7.0,63,0.00,,,0.00,weatherlink.com 1.10,2013-03-01 00:39:00,
2013-02-28 19:55:00,39.7,28.0,29.65,WNW,298,5.0,6.0,63,0.00,,,0.00,weatherlink.com 1.10,2013-03-01 00:55:00,
2013-02-28 20:10:00,39.7,28.0,29.66,NW,313,3.0,7.0,64,0.00,,,0.00,weatherlink.com 1.10,2013-03-01 01:10:00,
2013-02-28 20:25:00,39.7,29.0,29.66,WNW,294,3.0,8.0,65,0.00,,,0.00,weatherlink.com 1.10,2013-03-01 01:25:00,
2013-02-28 20:40:00,39.7,29.0,29.66,WNW,301,5.0,10.0,65,0.00,,,0.00,weatherlink.com 1.10,2013-03-01 01:40:00,
2013-02-28 20:55:00,39.7,29.0,29.67,WNW,296,4.0,10.0,66,0.00,,,0.00,weatherlink.com 1.10,2013-03-01 01:55:00,
2013-02-28 21:10:00,39.7,29.0,29.67,West,279,5.0,11.0,66,0.00,,,0.00,weatherlink.com 1.10,2013-03-01 02:10:00,
2013-02-28 21:25:00,39.7,29.0,29.67,WNW,296,7.0,9.0,67,0.00,,,0.00,weatherlink.com 1.10,2013-03-01 02:25:00,
2013-02-28 21:40:00,39.6,29.0,29.67,WNW,298,4.0,7.0,67,0.00,,,0.00,weatherlink.com 1.10,2013-03-01 02:40:00,
2013-02-28 21:55:00,39.6,30.0,29.67,WNW,289,6.0,9.0,68,0.00,,,0.00,weatherlink.com 1.10,2013-03-01 02:55:00,
2013-02-28 22:10:00,39.5,30.0,29.68,WNW,300,3.0,7.0,69,0.00,,,0.00,weatherlink.com 1.10,2013-03-01 03:10:00,
2013-02-28 22:25:00,39.4,30.0,29.67,WNW,300,4.0,9.0,70,0.00,,,0.00,weatherlink.com 1.10,2013-03-01 03:25:00,
2013-02-28 22:40:00,38.9,32.0,29.68,WNW,288,5.0,10.0,76,0.00,,,0.00,weatherlink.com 1.10,2013-03-01 03:40:00,
2013-02-28 22:55:00,37.9,32.0,29.68,WNW,290,1.0,4.0,79,0.00,,,0.00,weatherlink.com 1.10,2013-03-01 03:55:00,
2013-02-28 23:10:00,37.5,32.0,29.68,WNW,298,0.0,3.0,81,0.00,,,0.00,weatherlink.com 1.10,2013-03-01 04:10:00,
2013-02-28 23:25:00,37.4,32.0,29.67,WNW,302,1.0,3.0,80,0.00,,,0.00,weatherlink.com 1.10,2013-03-01 04:25:00,
2013-02-28 23:40:00,37.5,32.0,29.67,NW,306,1.0,4.0,80,0.00,,,0.00,weatherlink.com 1.10,2013-03-01 04:40:00,
2013-02-28 23:55:00,37.5,32.0,29.68,West,279,1.0,3.0,80,0.00,,,0.00,weatherlink.com 1.10,2013-03-01 04:55:00,